Vertical_Velocity
2 1 8 0 9 -8 2 5 -1 4 -3 7 17 -9 -3 6 3 12 3 -1 8 6
1 -1 -3 1 3 -10 9 2 -5 11 -5 2 7 -8 1 -2 9 -1 -2 3 2 4
-1 1 -0 -2 -7 -4 2 -15 1 3 -1 0 1 -5 -3 -5 -9 0 1 1 10 2
1 1 3 1 1 3 -4 5 5 5 5 -7 2 5 -3 -0 -3 -2 9 4 3 1
1 -0 1 1 2 5 3 4 5 3 -3 -6 -6 5 -1 -5 -4 1 -0 -5 3 0
-1 -1 -0 -0 1 1 4 0 5 -2 -8 4 -3 -5 6 -0 10 -4 -3 4 4 -3
-0 1 0 1 -0 -2 -0 0 3 4 -0 4 1 2 -5 9 -2 0 12 3 -0 1
-3 -2 1 2 1 2 0 1 -1 1 4 7 4 1 5 3 -0 -4 0 -1 13 4
0 -3 -4 -3 -1 -1 -0 0 2 1 0 -3 1 6 2 -1 -1 5 -1 4 -1 -5
-2 -2 0 -1 -4 -2 -2 -2 -2 -2 0 1 -0 0 3 6 4 4 7 1 6 5
-2 -3 -2 -2 1 -1 -3 -2 -1 -2 -2 -1 -1 3 5 5 9 1 0 -1 -2 -1
-1 -1 -3 -2 -4 -4 -1 1 -1 -0 -2 -3 -4 -1 -2 -1 -2 1 1 2 1 1
-1 0 -1 -0 -1 -2 -2 -4 -1 -1 2 -0 2 -4 -2 0 -2 -3 -3 -2 -2 -1
-1 -3 -0 -1 -0 -1 -3 -2 -4 -3 -2 -2 -1 -3 -1 -1 4 5 4 -1 -1 -4
Height
1441 1442 1442 1447 1442 1448 1448 1450 1451 1461 1463 1467 1465 1469 1479 1485 1487 1490 1499 1501 1505 1507
1444 1444 1445 1447 1448 1442 1451 1447 1452 1459 1457 1464 1463 1470 1475 1483 1483 1486 1492 1499 1503 1505
1449 1449 1450 1450 1451 1453 1451 1457 1457 1460 1459 1464 1463 1464 1474 1480 1480 1488 1492 1495 1498 1503
1452 1453 1454 1455 1456 1456 1458 1462 1460 1458 1459 1460 1466 1470 1474 1477 1484 1489 1490 1489 1493 1499
1455 1456 1455 1455 1456 1458 1458 1460 1459 1458 1458 1464 1468 1473 1474 1476 1484 1485 1486 1491 1494 1495
1458 1458 1458 1457 1458 1458 1459 1459 1460 1461 1463 1469 1470 1472 1478 1474 1480 1483 1487 1490 1491 1492
1461 1460 1460 1459 1459 1460 1461 1460 1463 1463 1468 1468 1470 1468 1478 1479 1478 1482 1487 1487 1488 1490
1461 1461 1461 1461 1460 1460 1461 1461 1462 1465 1466 1467 1467 1470 1475 1472 1477 1481 1487 1484 1483 1487
1461 1460 1460 1460 1460 1459 1459 1460 1461 1462 1463 1466 1467 1469 1470 1473 1477 1478 1483 1483 1483 1485
1458 1458 1459 1459 1458 1458 1458 1459 1460 1461 1462 1464 1466 1468 1470 1473 1474 1474 1475 1475 1476 1478
1455 1456 1456 1456 1456 1456 1457 1457 1458 1459 1460 1461 1462 1464 1466 1468 1468 1468 1468 1469 1471 1472
1453 1453 1453 1453 1453 1453 1454 1454 1455 1456 1456 1457 1457 1459 1460 1462 1462 1463 1465 1466 1466 1469
1451 1451 1451 1450 1449 1449 1450 1450 1451 1451 1452 1452 1453 1454 1456 1458 1458 1458 1459 1461 1463 1466
1449 1448 1448 1446 1447 1446 1446 1446 1446 1447 1447 1448 1449 1449 1451 1452 1454 1454 1455 1456 1457 1459